Weather History for Sarasota, FL

Change the Weather History Date:

Wednesday, January 9, 2013

  Actual Average Record
Temperature  
Mean Temperature 78 °F 61 °F  
Max Temperature 87 °F 71 °F 87 °F (2013)
Min Temperature 68 °F 52 °F 28 °F (1996)
Degree Days  
Heating Degree Days 0 6  
Month to date heating degree days 3 52  
Since 1 July heating degree days 121 207  
Cooling Degree Days 13 2  
Month to date cooling degree days 34 18  
Year to date cooling degree days 34 18  
Growing Degree Days 28 (Base 50)    
Moisture  
Dew Point 67 °F    
Average Humidity 78    
Maximum Humidity 97    
Minimum Humidity 48    
Precipitation  
Precipitation 0.00 in 0.10 in 2.22 in (1953)
Month to date precipitation 0.09 1.09  
Year to date precipitation 0.09 1.09  
Sea Level Pressure  
Sea Level Pressure 30.21 in    
Wind  
Wind Speed 9 mph (ESE)    
Max Wind Speed 18 mph    
Max Gust Speed 23 mph    
Visibility 10 miles    
Events      
T = Trace of Precipitation, MM = Missing Value Source: NWS Daily Summary

Daily Weather History Graph

Daily Weather History Graph

Search for Another Location

Airport:

Trip Planner

Search our weather history database for the weather conditions in past years. The results will help you decide how hot, cold, wet, or windy it might be!

Date:

Astronomy

Jan. 09, 2013 Rise Set
Actual Time 7:21 AM EST 5:53 PM EST
Civil Twilight 6:56 AM EST 6:18 PM EST
Nautical Twilight 6:27 AM EST 6:47 PM EST
Astronomical Twilight 5:59 AM EST 7:15 PM EST
Moon 4:59 AM EST (1/9) 3:54 PM EST (1/9)
Length of Visible Light 11h 22m
Length of Day
10h 31m
Waning Crescent, 6% of the Moon is Illuminated
Jan 9
Waning Crescent
Jan 11
New
Jan 18
First Quarter
Jan 26
Full
Feb 3
Last Quarter

Hourly Weather History & Observations

Time (EST) Temp. Heat Index Dew Point Humidity Pressure Visibility Wind Dir Wind Speed Gust Speed Precip Events Conditions
12:53 AM 71.1 °F - 68.0 °F 90% 30.17 in 10.0 mi East 8.1 mph - N/A   Clear
1:53 AM 71.1 °F - 68.0 °F 90% 30.17 in 10.0 mi East 6.9 mph - N/A   Clear
2:53 AM 70.0 °F - 68.0 °F 93% 30.16 in 10.0 mi East 9.2 mph - N/A   Clear
3:53 AM 70.0 °F - 68.0 °F 93% 30.16 in 9.0 mi East 6.9 mph - N/A   Clear
4:53 AM 69.1 °F - 68.0 °F 96% 30.16 in 8.0 mi East 8.1 mph - N/A   Clear
5:53 AM 69.1 °F - 68.0 °F 96% 30.17 in 8.0 mi East 8.1 mph - N/A   Scattered Clouds
6:53 AM 70.0 °F - 68.0 °F 93% 30.19 in 9.0 mi East 9.2 mph - N/A   Scattered Clouds
7:53 AM 70.0 °F - 68.0 °F 93% 30.21 in 7.0 mi ESE 10.4 mph - N/A   Clear
8:44 AM 71.6 °F - 69.8 °F 94% 30.22 in 10.0 mi ESE 12.7 mph - N/A   Partly Cloudy
8:53 AM 72.0 °F - 70.0 °F 93% 30.22 in 10.0 mi ESE 13.8 mph - N/A   Partly Cloudy
9:53 AM 77.0 °F - 70.0 °F 79% 30.25 in 10.0 mi ESE 12.7 mph 21.9 mph N/A   Partly Cloudy
10:33 AM 78.8 °F - 69.8 °F 74% 30.25 in 10.0 mi SE 11.5 mph - N/A   Mostly Cloudy
10:53 AM 80.1 °F 82.7 °F 68.0 °F 67% 30.25 in 10.0 mi SE 15.0 mph - N/A   Mostly Cloudy
11:03 AM 80.6 °F 83.9 °F 69.8 °F 70% 30.25 in 10.0 mi ESE 12.7 mph - N/A   Scattered Clouds
11:53 AM 82.0 °F 84.5 °F 66.9 °F 60% 30.23 in 10.0 mi ESE 13.8 mph - N/A   Partly Cloudy
12:53 PM 82.9 °F 85.0 °F 66.0 °F 56% 30.21 in 10.0 mi ESE 4.6 mph - N/A   Partly Cloudy
1:53 PM 86.0 °F 87.6 °F 64.9 °F 49% 30.19 in 10.0 mi SSE 9.2 mph - N/A   Scattered Clouds
2:53 PM 82.0 °F 84.5 °F 66.9 °F 60% 30.18 in 10.0 mi SW 8.1 mph - N/A   Partly Cloudy
3:53 PM 79.0 °F - 66.9 °F 66% 30.18 in 10.0 mi West 6.9 mph - N/A   Clear
4:53 PM 78.1 °F - 68.0 °F 71% 30.19 in 10.0 mi WNW 4.6 mph - N/A   Partly Cloudy
5:53 PM 78.1 °F - 66.9 °F 68% 30.19 in 10.0 mi Calm Calm - N/A   Clear
6:53 PM 77.0 °F - 64.9 °F 66% 30.20 in 10.0 mi East 8.1 mph - N/A   Clear
7:53 PM 75.9 °F - 64.9 °F 69% 30.23 in 10.0 mi ESE 10.4 mph - N/A   Clear
8:53 PM 75.0 °F - 64.9 °F 71% 30.24 in 10.0 mi East 10.4 mph - N/A   Clear
9:53 PM 73.0 °F - 66.0 °F 79% 30.25 in 10.0 mi East 9.2 mph - N/A   Clear
10:53 PM 71.1 °F - 66.0 °F 84% 30.26 in 10.0 mi ESE 12.7 mph - N/A   Clear
11:53 PM 70.0 °F - 66.9 °F 90% 30.27 in 10.0 mi ESE 9.2 mph - N/A   Clear